WGS F3 (USA 211)

Last updated on Sat Sep 05 2026 00:03:02 GMT+0000 (Coordinated Universal Time)

1 36108U 09068A 26247.57173176 .00000014 00000+0 00000+0 0 9992 2 36108 0.3158 85.2525 0000642 147.4804 194.4755 1.00271181 47382
UTC large
Height (km)
Speed (km/s)
/
Latitude / Longitude
Inclination (degrees)
Orbital Period (minutes)
Azimuth
Elevation
Range (km)
Doppler Factor

Next 0 passes for location: London (51.5072 / 0.1276)

No passes found over London.
WGS F3 (USA 211)